TimeCST,TemperatureF,Dew PointF,Humidity,Sea Level PressureIn,VisibilityMPH,Wind Direction,Wind SpeedMPH,Gust SpeedMPH,PrecipitationIn,Events,Conditions,WindDirDegrees,DateUTC
12:15 AM,32.0,32.0,100,30.29,4.0,Calm,Calm,-,N/A,,Overcast,0,2014-01-09 06:15:00
12:35 AM,32.0,32.0,100,30.28,5.0,Calm,Calm,-,N/A,,Overcast,0,2014-01-09 06:35:00
12:55 AM,32.0,32.0,100,30.28,5.0,Calm,Calm,-,N/A,,Overcast,0,2014-01-09 06:55:00
1:15 AM,32.0,32.0,100,30.28,7.0,Calm,Calm,-,N/A,,Overcast,0,2014-01-09 07:15:00
1:35 AM,32.0,32.0,100,30.28,7.0,Calm,Calm,-,N/A,,Overcast,0,2014-01-09 07:35:00
1:55 AM,32.0,32.0,100,30.27,7.0,Calm,Calm,-,N/A,,Overcast,0,2014-01-09 07:55:00
2:15 AM,32.0,32.0,100,30.27,10.0,Calm,Calm,-,N/A,,Overcast,0,2014-01-09 08:15:00
2:35 AM,32.0,32.0,100,30.27,5.0,Calm,Calm,-,N/A,,Overcast,0,2014-01-09 08:35:00
2:55 AM,32.0,32.0,100,30.27,3.0,Calm,Calm,-,N/A,,Overcast,0,2014-01-09 08:55:00
3:15 AM,32.0,32.0,100,30.27,4.0,Calm,Calm,-,N/A,,Overcast,0,2014-01-09 09:15:00
3:35 AM,32.0,32.0,100,30.26,3.0,Calm,Calm,-,0.01,,Overcast,0,2014-01-09 09:35:00
3:55 AM,32.0,32.0,100,30.25,5.0,Calm,Calm,-,0.01,,Overcast,0,2014-01-09 09:55:00
4:15 AM,32.0,32.0,100,30.25,4.0,Calm,Calm,-,N/A,,Overcast,0,2014-01-09 10:15:00
4:35 AM,32.0,32.0,100,30.24,5.0,Calm,Calm,-,N/A,,Overcast,0,2014-01-09 10:35:00
4:55 AM,32.0,32.0,100,30.24,3.0,Calm,Calm,-,N/A,,Overcast,0,2014-01-09 10:55:00
5:15 AM,32.0,32.0,100,30.24,3.0,Calm,Calm,-,N/A,,Overcast,0,2014-01-09 11:15:00
5:35 AM,32.0,32.0,100,30.25,2.5,Calm,Calm,-,N/A,,Overcast,0,2014-01-09 11:35:00
5:55 AM,32.0,32.0,100,30.24,3.0,Calm,Calm,-,N/A,,Overcast,0,2014-01-09 11:55:00
6:15 AM,32.0,32.0,100,30.25,2.5,Calm,Calm,-,N/A,,Overcast,0,2014-01-09 12:15:00
6:35 AM,32.0,32.0,100,30.25,2.5,Calm,Calm,-,N/A,,Overcast,0,2014-01-09 12:35:00
6:55 AM,32.0,32.0,100,30.25,2.5,Calm,Calm,-,N/A,,Overcast,0,2014-01-09 12:55:00
7:15 AM,32.0,32.0,100,30.25,3.0,Calm,Calm,-,N/A,,Overcast,0,2014-01-09 13:15:00
7:35 AM,32.0,32.0,100,30.25,2.0,Calm,Calm,-,N/A,,Overcast,0,2014-01-09 13:35:00
7:55 AM,32.0,32.0,100,30.26,2.0,Calm,Calm,-,N/A,,Overcast,0,2014-01-09 13:55:00
8:15 AM,32.0,32.0,100,30.27,2.5,Calm,Calm,-,N/A,,Overcast,0,2014-01-09 14:15:00
8:35 AM,32.0,32.0,100,30.28,2.0,Calm,Calm,-,N/A,,Overcast,0,2014-01-09 14:35:00
8:55 AM,32.0,32.0,100,30.28,2.5,Calm,Calm,-,N/A,,Overcast,0,2014-01-09 14:55:00
9:15 AM,32.0,32.0,100,30.28,2.5,Calm,Calm,-,N/A,,Overcast,0,2014-01-09 15:15:00
9:35 AM,32.0,32.0,100,30.29,2.5,Calm,Calm,-,N/A,,Overcast,0,2014-01-09 15:35:00
9:55 AM,32.0,32.0,100,30.28,3.0,Calm,Calm,-,N/A,,Overcast,0,2014-01-09 15:55:00
10:15 AM,32.0,32.0,100,30.28,3.0,Calm,Calm,-,N/A,,Overcast,0,2014-01-09 16:15:00
10:35 AM,32.0,32.0,100,30.28,3.0,Calm,Calm,-,N/A,,Overcast,0,2014-01-09 16:35:00
10:55 AM,33.8,33.8,100,30.28,3.0,Calm,Calm,-,N/A,,Overcast,0,2014-01-09 16:55:00
11:15 AM,33.8,33.8,100,30.26,4.0,Calm,Calm,-,N/A,,Overcast,0,2014-01-09 17:15:00
11:35 AM,33.8,33.8,100,30.25,4.0,Calm,Calm,-,N/A,,Overcast,0,2014-01-09 17:35:00
11:55 AM,33.8,33.8,100,30.24,7.0,Calm,Calm,-,N/A,,Overcast,0,2014-01-09 17:55:00
12:15 PM,33.8,33.8,100,30.23,5.0,Calm,Calm,-,N/A,,Overcast,0,2014-01-09 18:15:00
12:35 PM,33.8,33.8,100,30.21,4.0,Calm,Calm,-,N/A,,Overcast,0,2014-01-09 18:35:00
12:55 PM,33.8,33.8,100,30.20,5.0,Calm,Calm,-,N/A,,Overcast,0,2014-01-09 18:55:00
1:15 PM,33.8,33.8,100,30.19,5.0,Calm,Calm,-,N/A,,Overcast,0,2014-01-09 19:15:00
1:35 PM,33.8,33.8,100,30.18,5.0,Calm,Calm,-,N/A,,Overcast,0,2014-01-09 19:35:00
1:55 PM,33.8,33.8,100,30.18,4.0,Calm,Calm,-,N/A,,Overcast,0,2014-01-09 19:55:00
2:35 PM,33.8,33.8,100,30.17,5.0,Calm,Calm,-,N/A,,Overcast,0,2014-01-09 20:35:00
2:55 PM,33.8,33.8,100,30.16,5.0,Calm,Calm,-,N/A,,Overcast,0,2014-01-09 20:55:00
3:15 PM,33.8,33.8,100,30.16,5.0,Calm,Calm,-,N/A,,Overcast,0,2014-01-09 21:15:00
3:35 PM,33.8,33.8,100,30.16,5.0,East,6.9,-,N/A,,Overcast,100,2014-01-09 21:35:00
3:55 PM,33.8,33.8,100,30.16,5.0,East,6.9,-,N/A,,Overcast,100,2014-01-09 21:55:00
4:15 PM,33.8,33.8,100,30.16,5.0,East,6.9,-,N/A,,Overcast,100,2014-01-09 22:15:00
5:15 PM,33.8,33.8,100,30.15,3.0,East,6.9,-,N/A,,Overcast,100,2014-01-09 23:15:00
5:35 PM,33.8,33.8,100,30.15,2.5,East,6.9,-,N/A,,Overcast,90,2014-01-09 23:35:00
5:55 PM,33.8,33.8,100,30.14,3.0,East,8.1,-,N/A,,Overcast,100,2014-01-09 23:55:00
6:15 PM,33.8,33.8,100,30.14,3.0,East,10.4,-,N/A,,Overcast,100,2014-01-10 00:15:00
6:35 PM,33.8,33.8,100,30.14,3.0,East,10.4,-,N/A,,Overcast,90,2014-01-10 00:35:00
6:55 PM,33.8,33.8,100,30.14,3.0,East,9.2,-,N/A,,Overcast,90,2014-01-10 00:55:00
7:15 PM,33.8,33.8,100,30.14,3.0,East,9.2,-,N/A,,Overcast,90,2014-01-10 01:15:00
7:35 PM,33.8,33.8,100,30.15,4.0,East,6.9,-,N/A,,Overcast,90,2014-01-10 01:35:00
7:55 PM,33.8,33.8,100,30.14,4.0,East,9.2,-,N/A,,Overcast,90,2014-01-10 01:55:00
8:15 PM,33.8,33.8,100,30.15,4.0,East,9.2,-,N/A,,Overcast,100,2014-01-10 02:15:00
8:35 PM,33.8,33.8,100,30.14,4.0,East,9.2,-,N/A,,Overcast,80,2014-01-10 02:35:00
8:55 PM,33.8,33.8,100,30.13,4.0,East,9.2,-,N/A,,Overcast,90,2014-01-10 02:55:00
9:15 PM,33.8,33.8,100,30.13,4.0,East,8.1,-,N/A,,Overcast,90,2014-01-10 03:15:00
9:35 PM,33.8,33.8,100,30.12,5.0,East,8.1,-,N/A,,Overcast,90,2014-01-10 03:35:00
9:55 PM,33.8,33.8,100,30.12,5.0,East,8.1,-,N/A,,Overcast,90,2014-01-10 03:55:00
10:15 PM,33.8,33.8,100,30.12,5.0,East,9.2,-,N/A,,Overcast,100,2014-01-10 04:15:00
10:35 PM,33.8,33.8,100,30.11,5.0,East,8.1,-,N/A,,Overcast,100,2014-01-10 04:35:00
10:55 PM,33.8,33.8,100,30.10,5.0,East,8.1,-,N/A,,Overcast,90,2014-01-10 04:55:00
11:15 PM,33.8,33.8,100,30.10,4.0,East,8.1,-,N/A,,Overcast,80,2014-01-10 05:15:00
11:35 PM,33.8,33.8,100,30.09,4.0,East,9.2,-,N/A,,Overcast,100,2014-01-10 05:35:00
11:55 PM,33.8,33.8,100,30.07,5.0,East,10.4,-,N/A,,Overcast,100,2014-01-10 05:55:00